Weather History for Gage, OK

Change the Weather History Date:

Sunday, May 19, 2013

  Actual Average Record
Temperature  
Mean Temperature 76 °F -  
Max Temperature 89 °F 80 °F 102 °F (2004)
Min Temperature 64 °F 54 °F 35 °F (1971)
Cooling Degree Days 11    
Growing Degree Days 26 (Base 50)    
Moisture  
Dew Point 54 °F    
Average Humidity 59    
Maximum Humidity 88    
Minimum Humidity 20    
Precipitation  
Precipitation 0.00 in - - ()
Sea Level Pressure  
Sea Level Pressure 29.60 in    
Wind  
Wind Speed 12 mph (East)    
Max Wind Speed 25 mph    
Max Gust Speed 31 mph    
Visibility 10 miles    
Events      
Averages and records for this station are not official NWS values.
T = Trace of Precipitation, MM = Missing Value Source: NWS Daily Summary

Daily Weather History Graph

Daily Weather History Graph

Search for Another Location

Airport:

Trip Planner

Search our weather history database for the weather conditions in past years. The results will help you decide how hot, cold, wet, or windy it might be!

Date:

Astronomy

May. 19, 2013 Rise Set
Actual Time 6:29 AM CDT 8:42 PM CDT
Civil Twilight 6:00 AM CDT 9:11 PM CDT
Nautical Twilight 5:25 AM CDT 9:46 PM CDT
Astronomical Twilight 4:46 AM CDT 10:25 PM CDT
Moon 2:57 PM CDT (5/19) 2:43 AM CDT (5/19)
Length of Visible Light 15h 10m
Length of Day
14h 12m
Waxing Gibbous, 65% of the Moon is Illuminated
May 19
Waxing Gibbous
May 24
Full
May 31
Last Quarter
Jun 8
New
Jun 16
First Quarter

Hourly Weather History & Observations

Time (CDT) Temp. Heat Index Dew Point Humidity Pressure Visibility Wind Dir Wind Speed Gust Speed Precip Events Conditions
12:53 AM 70.0 °F - 54.0 °F 57% 29.56 in 10.0 mi SSE 25.3 mph 31.1 mph N/A   Clear
1:53 AM 69.1 °F - 55.9 °F 63% 29.60 in 10.0 mi Variable 3.5 mph - N/A   Clear
2:53 AM 70.0 °F - 59.0 °F 68% 29.59 in 10.0 mi SSE 13.8 mph - N/A   Scattered Clouds
3:53 AM 68.0 °F - 60.1 °F 76% 29.54 in 10.0 mi SE 16.1 mph - N/A   Partly Cloudy
4:53 AM 66.2 °F - 62.6 °F 88% 29.65 in 9.0 mi East 3.5 mph - N/A   Clear
5:21 AM 66.2 °F - 62.6 °F 88% 29.66 in 8.0 mi East 6.9 mph - N/A   Mostly Cloudy
5:53 AM 68.0 °F - 63.0 °F 84% 29.57 in 8.0 mi ENE 8.1 mph - N/A   Overcast
6:09 AM 66.2 °F - 62.6 °F 88% 29.67 in 9.0 mi East 4.6 mph - N/A   Overcast
6:53 AM 66.2 °F - 62.6 °F 88% 29.67 in 7.0 mi East 4.6 mph - N/A   Scattered Clouds
7:04 AM 64.4 °F - 60.8 °F 88% 29.67 in 7.0 mi ENE 5.8 mph - N/A   Mostly Cloudy
7:53 AM 64.9 °F - 60.1 °F 84% 29.61 in 10.0 mi NE 8.1 mph - N/A   Overcast
8:03 AM 64.4 °F - 59.0 °F 83% 29.68 in 10.0 mi ENE 9.2 mph - N/A   Overcast
8:11 AM 66.2 °F - 60.8 °F 83% 29.68 in 10.0 mi ENE 9.2 mph - N/A   Mostly Cloudy
8:21 AM 66.2 °F - 59.0 °F 78% 29.66 in 10.0 mi East 12.7 mph - N/A   Scattered Clouds
8:53 AM 68.0 °F - 60.1 °F 76% 29.58 in 10.0 mi ESE 10.4 mph - N/A   Clear
9:53 AM 71.1 °F - 62.1 °F 73% 29.57 in 10.0 mi SE 12.7 mph - N/A   Clear
10:53 AM 75.9 °F - 63.0 °F 64% 29.58 in 10.0 mi SW 10.4 mph - N/A   Partly Cloudy
11:53 AM 81.0 °F 82.2 °F 63.0 °F 54% 29.57 in 10.0 mi WSW 9.2 mph - N/A   Clear
12:53 PM 82.0 °F 81.7 °F 57.0 °F 42% 29.56 in 10.0 mi West 12.7 mph - N/A   Clear
1:53 PM 84.2 °F - 50.0 °F 30% 29.63 in 10.0 mi West 8.1 mph 19.6 mph N/A   Clear
2:53 PM 84.0 °F - 48.9 °F 29% 29.55 in 10.0 mi West 6.9 mph 17.3 mph N/A   Scattered Clouds
3:53 PM 86.0 °F - 43.0 °F 22% 29.53 in 10.0 mi WSW 17.3 mph - N/A   Clear
4:53 PM 88.0 °F - 42.1 °F 20% 29.52 in 10.0 mi West 19.6 mph 27.6 mph N/A   Partly Cloudy
5:53 PM 87.1 °F - 44.1 °F 22% 29.52 in 10.0 mi WNW 11.5 mph - N/A   Scattered Clouds
6:53 PM 82.9 °F - 41.0 °F 23% 29.55 in 10.0 mi NNW 16.1 mph 21.9 mph N/A   Clear
7:53 PM 80.1 °F - 43.0 °F 27% 29.57 in 10.0 mi NW 5.8 mph - N/A   Clear
8:53 PM 73.0 °F - 39.9 °F 30% 29.58 in 10.0 mi North 4.6 mph - N/A   Clear
9:53 PM 68.0 °F - 45.0 °F 43% 29.62 in 10.0 mi WSW 4.6 mph - N/A   Clear
10:53 PM 66.0 °F - 42.1 °F 42% 29.64 in 10.0 mi West 3.5 mph - N/A   Clear
11:53 PM 66.0 °F - 46.0 °F 48% 29.64 in 10.0 mi NE 8.1 mph - N/A   Clear